LEMUR-2-TOMHENDERSON (43561 NORAD) Tracking and Keplerian Element Data

This shows tracking and keplerian element data for the satellite.

Feedback or suggestion? Click here.




ElementValue
Catalog43561
NameLEMUR-2-TOMHENDERSON
Epoch Orbit4229
Epoch Day111.99791277
Epoch Year2019
RAAN332.7184
Inclination51.6426
Eccentricity0.0007289
Argument of Perigee237.4296
Mean Anonmoly122.5981
Mean Motion15.29067183
Decay Rate1.723E-05
L11 43561U 18046H 19111.99791277 .00001723 00000-0 72679-4 0 9990
L22 43561 51.6426 332.7184 0007289 237.4296 122.5981 15.29067183 42299

Live tracking and technical data element details for LEMUR-2-TOMHENDERSON (NORAD 43561). LEMUR-2-TOMHENDERSON can be tracked NOW for your location showing map with azimuth and elevation plus other details from your city location.

Track the satellite on the map from your city or location and see movement details for azimuth, elevation, latitude, longitude, range, height, and movement on the map or in text.







IsCatalogInMostPopularTable: catalog: 43561, numindb: 135
Update: records affected: 1



GetName: 43561 LEMUR-2-TOMHENDERSON

Hit Count: updated at: Tue, 23 Apr 2019 19:50:45 GMT